Time,TemperatureF,DewpointF,PressureIn,WindDirection,WindDirectionDegrees,WindSpeedMPH,WindSpeedGustMPH,Humidity,HourlyPrecipIn,Conditions,Clouds,dailyrainin,SoftwareType,DateUTC
2013-07-03 00:01:00,62.6,59.4,30.05,NNE,22,0.0,-999.0,89,0.02,,,0.02,open2300 v1.10,2013-07-03 04:01:00,
2013-07-03 00:11:00,62.4,59.2,30.05,NNE,22,0.0,-999.0,89,0.04,,,0.04,open2300 v1.10,2013-07-03 04:11:00,
2013-07-03 00:21:00,62.4,59.2,30.05,NNE,22,0.0,-999.0,89,0.04,,,0.04,open2300 v1.10,2013-07-03 04:21:00,
2013-07-03 00:31:00,62.2,59.0,30.04,NNE,22,0.0,-999.0,89,0.04,,,0.04,open2300 v1.10,2013-07-03 04:31:00,
2013-07-03 00:41:00,62.2,59.0,30.05,NNE,22,0.0,-999.0,89,0.04,,,0.04,open2300 v1.10,2013-07-03 04:41:00,
2013-07-03 00:51:00,62.2,59.0,30.05,NNE,22,0.0,-999.0,89,0.04,,,0.04,open2300 v1.10,2013-07-03 04:51:00,
2013-07-03 01:11:00,62.2,59.4,30.05,NNE,22,0.0,-999.0,90,0.00,,,0.04,open2300 v1.10,2013-07-03 05:11:00,
2013-07-03 01:21:00,62.2,59.4,30.05,NNE,22,0.0,-999.0,90,0.00,,,0.04,open2300 v1.10,2013-07-03 05:21:00,
2013-07-03 01:31:00,62.2,59.4,30.05,NNE,22,0.0,-999.0,90,0.00,,,0.04,open2300 v1.10,2013-07-03 05:31:00,
2013-07-03 01:41:00,62.4,59.5,30.04,NNE,22,0.0,-999.0,90,0.00,,,0.04,open2300 v1.10,2013-07-03 05:41:00,
2013-07-03 01:51:00,62.4,59.5,30.04,NNE,22,0.0,-999.0,90,0.00,,,0.04,open2300 v1.10,2013-07-03 05:51:00,
2013-07-03 02:11:00,62.4,59.5,30.04,NNE,22,0.0,-999.0,90,0.00,,,0.04,open2300 v1.10,2013-07-03 06:11:00,
2013-07-03 02:21:00,62.4,59.5,30.03,NNE,22,0.0,-999.0,90,0.00,,,0.04,open2300 v1.10,2013-07-03 06:21:00,
2013-07-03 02:31:00,62.4,59.8,30.03,NNE,22,0.0,-999.0,91,0.00,,,0.04,open2300 v1.10,2013-07-03 06:31:00,
2013-07-03 02:41:00,62.4,59.8,30.04,NNE,22,0.0,-999.0,91,0.00,,,0.04,open2300 v1.10,2013-07-03 06:41:00,
2013-07-03 02:51:00,62.4,59.8,30.03,NNE,22,0.0,-999.0,91,0.00,,,0.04,open2300 v1.10,2013-07-03 06:51:00,
2013-07-03 03:01:00,62.4,59.8,30.03,NNE,22,0.0,-999.0,91,0.00,,,0.04,open2300 v1.10,2013-07-03 07:01:00,
2013-07-03 03:11:00,62.2,59.7,30.02,NNE,22,0.0,-999.0,91,0.00,,,0.04,open2300 v1.10,2013-07-03 07:11:00,
2013-07-03 03:21:00,62.2,59.7,30.02,NNE,22,0.0,-999.0,91,0.00,,,0.04,open2300 v1.10,2013-07-03 07:21:00,
2013-07-03 03:31:00,62.2,59.7,30.02,NNE,22,0.0,-999.0,91,0.00,,,0.04,open2300 v1.10,2013-07-03 07:31:00,
2013-07-03 03:41:00,62.2,59.7,30.02,NNE,22,0.0,-999.0,91,0.00,,,0.04,open2300 v1.10,2013-07-03 07:41:00,
2013-07-03 03:51:00,62.2,59.7,30.03,NNE,22,0.0,-999.0,91,0.00,,,0.04,open2300 v1.10,2013-07-03 07:51:00,
2013-07-03 04:01:00,62.1,59.5,30.03,NNE,22,0.0,-999.0,91,0.00,,,0.04,open2300 v1.10,2013-07-03 08:01:00,
2013-07-03 04:11:00,62.1,59.5,30.03,NNE,22,0.0,-999.0,91,0.00,,,0.04,open2300 v1.10,2013-07-03 08:11:00,
2013-07-03 04:21:00,62.1,59.5,30.03,NNE,22,0.0,-999.0,91,0.00,,,0.04,open2300 v1.10,2013-07-03 08:21:00,
2013-07-03 04:31:00,62.2,59.7,30.04,NNE,22,0.0,-999.0,91,0.00,,,0.04,open2300 v1.10,2013-07-03 08:31:00,
2013-07-03 04:41:00,62.2,59.7,30.04,NNE,22,0.0,-999.0,91,0.00,,,0.04,open2300 v1.10,2013-07-03 08:41:00,
2013-07-03 04:51:00,62.2,59.7,30.04,NNE,22,0.0,-999.0,91,0.00,,,0.04,open2300 v1.10,2013-07-03 08:51:00,
2013-07-03 05:01:00,62.2,59.7,30.04,NNE,22,0.0,-999.0,91,0.00,,,0.04,open2300 v1.10,2013-07-03 09:01:00,
2013-07-03 05:11:00,62.4,59.8,30.04,NNE,22,0.0,-999.0,91,0.00,,,0.04,open2300 v1.10,2013-07-03 09:11:00,
2013-07-03 05:21:00,62.4,59.8,30.03,NNE,22,0.0,-999.0,91,0.00,,,0.04,open2300 v1.10,2013-07-03 09:21:00,
2013-07-03 05:31:00,62.4,59.8,30.04,NNE,22,0.0,-999.0,91,0.00,,,0.04,open2300 v1.10,2013-07-03 09:31:00,
2013-07-03 05:41:00,62.4,59.8,30.03,NNE,22,0.0,-999.0,91,0.00,,,0.04,open2300 v1.10,2013-07-03 09:41:00,
2013-07-03 05:51:00,62.4,59.8,30.03,NNE,22,0.0,-999.0,91,0.00,,,0.04,open2300 v1.10,2013-07-03 09:51:00,
2013-07-03 06:01:00,62.4,59.8,30.04,NNE,22,0.0,-999.0,91,0.00,,,0.04,open2300 v1.10,2013-07-03 10:01:00,
2013-07-03 06:31:00,62.4,59.8,30.04,NNE,22,0.0,-999.0,91,0.00,,,0.04,open2300 v1.10,2013-07-03 10:31:00,
2013-07-03 06:51:00,62.4,59.8,30.05,NNE,22,0.0,-999.0,91,0.00,,,0.04,open2300 v1.10,2013-07-03 10:51:00,
2013-07-03 07:01:00,62.8,60.2,30.05,NNE,22,0.0,-999.0,91,0.00,,,0.04,open2300 v1.10,2013-07-03 11:01:00,
2013-07-03 07:11:00,62.8,60.2,30.05,NNE,22,0.0,-999.0,91,0.00,,,0.04,open2300 v1.10,2013-07-03 11:11:00,
2013-07-03 07:21:00,62.8,60.5,30.05,NNE,22,0.0,-999.0,92,0.00,,,0.04,open2300 v1.10,2013-07-03 11:21:00,
2013-07-03 07:31:00,62.6,60.3,30.06,NNE,22,0.0,-999.0,92,0.00,,,0.04,open2300 v1.10,2013-07-03 11:31:00,
2013-07-03 07:41:00,62.6,60.3,30.05,NNE,22,0.0,-999.0,92,0.00,,,0.04,open2300 v1.10,2013-07-03 11:41:00,
2013-07-03 07:51:00,62.8,60.5,30.05,NNE,22,0.0,-999.0,92,0.00,,,0.04,open2300 v1.10,2013-07-03 11:51:00,
2013-07-03 08:01:00,63.1,60.8,30.05,NNE,22,0.0,-999.0,92,0.00,,,0.04,open2300 v1.10,2013-07-03 12:01:00,
2013-07-03 08:11:00,63.5,61.2,30.06,NNE,22,0.0,-999.0,92,0.00,,,0.04,open2300 v1.10,2013-07-03 12:11:00,
2013-07-03 08:31:00,63.7,61.4,30.06,NNE,22,0.0,-999.0,92,0.00,,,0.04,open2300 v1.10,2013-07-03 12:31:00,
2013-07-03 08:41:00,63.7,61.4,30.06,NNE,22,0.0,-999.0,92,0.00,,,0.04,open2300 v1.10,2013-07-03 12:41:00,
2013-07-03 08:51:00,64.0,61.7,30.07,NNE,22,0.0,-999.0,92,0.00,,,0.04,open2300 v1.10,2013-07-03 12:51:00,
2013-07-03 09:01:00,64.2,61.9,30.07,NNE,22,0.0,-999.0,92,0.00,,,0.04,open2300 v1.10,2013-07-03 13:01:00,
2013-07-03 09:11:00,64.6,62.3,30.07,NNE,22,0.0,-999.0,92,0.00,,,0.04,open2300 v1.10,2013-07-03 13:11:00,
2013-07-03 09:21:00,64.9,62.9,30.07,NNE,22,0.0,-999.0,93,0.00,,,0.04,open2300 v1.10,2013-07-03 13:21:00,
2013-07-03 10:01:00,66.7,64.6,30.07,NNE,22,0.0,-999.0,93,0.00,,,0.04,open2300 v1.10,2013-07-03 14:01:00,
2013-07-03 10:11:00,66.9,64.8,30.07,NNE,22,0.0,-999.0,93,0.00,,,0.04,open2300 v1.10,2013-07-03 14:11:00,
2013-07-03 10:21:00,66.9,64.5,30.07,NNE,22,0.0,-999.0,92,0.00,,,0.04,open2300 v1.10,2013-07-03 14:21:00,
2013-07-03 10:31:00,66.9,64.5,30.07,NNE,22,1.1,-999.0,92,0.00,,,0.04,open2300 v1.10,2013-07-03 14:31:00,
2013-07-03 10:41:00,67.1,64.3,30.07,NNE,22,0.0,-999.0,91,0.00,,,0.04,open2300 v1.10,2013-07-03 14:41:00,
2013-07-03 10:51:00,67.3,64.5,30.07,NNE,22,0.0,-999.0,91,0.00,,,0.04,open2300 v1.10,2013-07-03 14:51:00,
2013-07-03 11:01:00,67.6,64.6,30.08,NNE,22,6.7,-999.0,90,0.00,,,0.04,open2300 v1.10,2013-07-03 15:01:00,
2013-07-03 11:11:00,67.6,63.9,30.08,NNE,22,0.0,-999.0,88,0.00,,,0.04,open2300 v1.10,2013-07-03 15:11:00,
2013-07-03 11:21:00,67.3,63.2,30.09,NNE,22,0.0,-999.0,87,0.00,,,0.04,open2300 v1.10,2013-07-03 15:21:00,
2013-07-03 11:31:00,66.9,62.9,30.09,NNE,22,0.0,-999.0,87,0.00,,,0.04,open2300 v1.10,2013-07-03 15:31:00,
2013-07-03 11:51:00,66.7,62.7,30.09,NNE,22,0.0,-999.0,87,0.00,,,0.04,open2300 v1.10,2013-07-03 15:51:00,
2013-07-03 12:01:00,66.6,62.5,30.09,NNE,22,2.5,-999.0,87,0.00,,,0.04,open2300 v1.10,2013-07-03 16:01:00,
2013-07-03 12:21:00,65.8,62.2,30.09,NNE,22,0.0,-999.0,88,0.00,,,0.04,open2300 v1.10,2013-07-03 16:21:00,
2013-07-03 12:31:00,66.0,62.6,30.09,North,0,0.0,-999.0,89,0.00,,,0.04,open2300 v1.10,2013-07-03 16:31:00,
2013-07-03 12:41:00,66.4,63.3,30.09,NNE,22,0.0,-999.0,90,0.00,,,0.04,open2300 v1.10,2013-07-03 16:41:00,
2013-07-03 12:51:00,66.7,63.7,30.09,NNE,22,3.6,-999.0,90,0.00,,,0.04,open2300 v1.10,2013-07-03 16:51:00,
2013-07-03 13:01:00,67.6,64.3,30.09,NNE,22,0.0,-999.0,89,0.00,,,0.04,open2300 v1.10,2013-07-03 17:01:00,
2013-07-03 13:11:00,68.7,65.0,30.09,NNE,22,0.0,-999.0,88,0.00,,,0.04,open2300 v1.10,2013-07-03 17:11:00,
2013-07-03 13:21:00,69.4,65.2,30.09,North,0,0.0,-999.0,86,0.00,,,0.04,open2300 v1.10,2013-07-03 17:21:00,
2013-07-03 13:31:00,70.7,65.9,30.09,NNE,22,0.0,-999.0,85,0.00,,,0.04,open2300 v1.10,2013-07-03 17:31:00,
2013-07-03 13:41:00,70.5,65.1,30.09,NNE,22,0.0,-999.0,83,0.00,,,0.04,open2300 v1.10,2013-07-03 17:41:00,
2013-07-03 13:51:00,70.3,64.9,30.09,NNE,22,0.0,-999.0,83,0.00,,,0.04,open2300 v1.10,2013-07-03 17:51:00,
2013-07-03 14:01:00,70.3,64.2,30.09,NNE,22,0.0,-999.0,81,0.00,,,0.04,open2300 v1.10,2013-07-03 18:01:00,
2013-07-03 14:11:00,70.3,64.5,30.09,NNE,22,0.0,-999.0,82,0.00,,,0.04,open2300 v1.10,2013-07-03 18:11:00,
2013-07-03 14:31:00,71.1,65.3,30.09,WNW,292,0.0,-999.0,82,0.00,,,0.04,open2300 v1.10,2013-07-03 18:31:00,
2013-07-03 14:41:00,72.0,65.5,30.09,NNE,22,0.0,-999.0,80,0.00,,,0.04,open2300 v1.10,2013-07-03 18:41:00,
2013-07-03 14:51:00,72.7,65.8,30.09,NNE,22,0.0,-999.0,79,0.00,,,0.04,open2300 v1.10,2013-07-03 18:51:00,
2013-07-03 15:01:00,73.2,66.0,30.09,North,0,0.0,-999.0,78,0.00,,,0.04,open2300 v1.10,2013-07-03 19:01:00,
2013-07-03 15:21:00,73.2,65.6,30.09,North,0,2.7,-999.0,77,0.00,,,0.04,open2300 v1.10,2013-07-03 19:21:00,
2013-07-03 15:31:00,73.2,65.6,30.08,WNW,292,0.0,-999.0,77,0.00,,,0.04,open2300 v1.10,2013-07-03 19:31:00,
2013-07-03 15:51:00,73.2,64.8,30.08,NNE,22,2.2,-999.0,75,0.00,,,0.04,open2300 v1.10,2013-07-03 19:51:00,
2013-07-03 16:01:00,72.9,64.9,30.09,NNE,22,0.0,-999.0,76,0.00,,,0.04,open2300 v1.10,2013-07-03 20:01:00,
2013-07-03 16:11:00,72.3,65.5,30.08,NNE,22,0.0,-999.0,79,0.00,,,0.04,open2300 v1.10,2013-07-03 20:11:00,
2013-07-03 16:21:00,73.2,66.0,30.08,NNE,22,0.0,-999.0,78,0.00,,,0.04,open2300 v1.10,2013-07-03 20:21:00,
2013-07-03 16:31:00,73.9,65.9,30.08,North,0,0.0,-999.0,76,0.00,,,0.04,open2300 v1.10,2013-07-03 20:31:00,
2013-07-03 16:41:00,74.5,66.4,30.09,North,0,0.0,-999.0,76,0.00,,,0.04,open2300 v1.10,2013-07-03 20:41:00,
2013-07-03 16:51:00,74.1,65.7,30.08,North,0,1.3,-999.0,75,0.00,,,0.04,open2300 v1.10,2013-07-03 20:51:00,
2013-07-03 17:01:00,73.6,64.8,30.08,NNE,22,0.0,-999.0,74,0.00,,,0.04,open2300 v1.10,2013-07-03 21:01:00,
2013-07-03 17:11:00,73.2,65.2,30.08,WNW,292,0.0,-999.0,76,0.00,,,0.04,open2300 v1.10,2013-07-03 21:11:00,
2013-07-03 17:21:00,72.7,65.1,30.08,NNE,22,0.0,-999.0,77,0.00,,,0.04,open2300 v1.10,2013-07-03 21:21:00,
2013-07-03 17:31:00,72.1,64.5,30.08,North,0,0.0,-999.0,77,0.00,,,0.04,open2300 v1.10,2013-07-03 21:31:00,
2013-07-03 17:41:00,71.4,64.6,30.08,North,0,0.0,-999.0,79,0.00,,,0.04,open2300 v1.10,2013-07-03 21:41:00,
2013-07-03 17:51:00,72.0,65.5,30.07,NNE,22,0.0,-999.0,80,0.00,,,0.04,open2300 v1.10,2013-07-03 21:51:00,
2013-07-03 18:01:00,72.7,65.4,30.07,NNE,22,0.0,-999.0,78,0.00,,,0.04,open2300 v1.10,2013-07-03 22:01:00,
2013-07-03 18:11:00,72.3,64.3,30.07,NNE,22,0.0,-999.0,76,0.00,,,0.04,open2300 v1.10,2013-07-03 22:11:00,
2013-07-03 18:41:00,72.5,64.9,30.07,NNE,22,0.0,-999.0,77,0.00,,,0.04,open2300 v1.10,2013-07-03 22:41:00,
2013-07-03 18:51:00,72.3,64.3,30.07,NNE,22,0.0,-999.0,76,0.00,,,0.04,open2300 v1.10,2013-07-03 22:51:00,
2013-07-03 19:01:00,72.1,64.2,30.07,NNE,22,0.0,-999.0,76,0.00,,,0.04,open2300 v1.10,2013-07-03 23:01:00,
2013-07-03 19:21:00,72.3,64.0,30.08,North,0,0.0,-999.0,75,0.00,,,0.04,open2300 v1.10,2013-07-03 23:21:00,
2013-07-03 19:51:00,71.4,63.0,30.07,NNE,22,0.0,-999.0,75,0.00,,,0.04,open2300 v1.10,2013-07-03 23:51:00,
2013-07-03 20:01:00,71.4,63.4,30.08,North,0,0.0,-999.0,76,0.00,,,0.04,open2300 v1.10,2013-07-04 00:01:00,
2013-07-03 20:11:00,71.2,63.2,30.07,North,0,0.0,-999.0,76,0.00,,,0.04,open2300 v1.10,2013-07-04 00:11:00,
2013-07-03 20:21:00,71.2,62.9,30.08,North,0,0.0,-999.0,75,0.00,,,0.04,open2300 v1.10,2013-07-04 00:21:00,
2013-07-03 20:31:00,70.9,62.5,30.08,North,0,0.0,-999.0,75,0.00,,,0.04,open2300 v1.10,2013-07-04 00:31:00,
2013-07-03 20:41:00,70.5,62.5,30.08,North,0,0.0,-999.0,76,0.00,,,0.04,open2300 v1.10,2013-07-04 00:41:00,
2013-07-03 20:51:00,70.2,62.5,30.09,North,0,0.0,-999.0,77,0.00,,,0.04,open2300 v1.10,2013-07-04 00:51:00,
2013-07-03 21:01:00,70.0,62.4,30.08,North,0,0.0,-999.0,77,0.00,,,0.04,open2300 v1.10,2013-07-04 01:01:00,
2013-07-03 21:11:00,69.6,62.0,30.08,North,0,0.0,-999.0,77,0.00,,,0.04,open2300 v1.10,2013-07-04 01:11:00,
2013-07-03 21:21:00,69.1,61.9,30.09,North,0,0.0,-999.0,78,0.00,,,0.04,open2300 v1.10,2013-07-04 01:21:00,
2013-07-03 21:31:00,68.7,61.6,30.09,North,0,0.0,-999.0,78,0.00,,,0.04,open2300 v1.10,2013-07-04 01:31:00,
2013-07-03 21:51:00,67.6,61.0,30.09,North,0,0.0,-999.0,79,0.00,,,0.04,open2300 v1.10,2013-07-04 01:51:00,
2013-07-03 22:01:00,67.1,60.8,30.09,North,0,0.0,-999.0,80,0.00,,,0.04,open2300 v1.10,2013-07-04 02:01:00,
2013-07-03 22:11:00,66.7,60.4,30.10,North,0,0.0,-999.0,80,0.00,,,0.04,open2300 v1.10,2013-07-04 02:11:00,
2013-07-03 22:21:00,66.0,60.0,30.10,North,0,0.0,-999.0,81,0.00,,,0.04,open2300 v1.10,2013-07-04 02:21:00,
2013-07-03 22:31:00,65.8,59.9,30.10,North,0,0.0,-999.0,81,0.00,,,0.04,open2300 v1.10,2013-07-04 02:31:00,
2013-07-03 22:41:00,65.5,59.8,30.10,North,0,0.0,-999.0,82,0.00,,,0.04,open2300 v1.10,2013-07-04 02:41:00,
2013-07-03 22:51:00,65.1,59.8,30.11,North,0,0.0,-999.0,83,0.00,,,0.04,open2300 v1.10,2013-07-04 02:51:00,
2013-07-03 23:01:00,65.1,59.8,30.11,North,0,0.0,-999.0,83,0.00,,,0.02,open2300 v1.10,2013-07-04 03:01:00,
2013-07-03 23:11:00,64.9,59.7,30.11,North,0,0.0,-999.0,83,0.00,,,0.02,open2300 v1.10,2013-07-04 03:11:00,
2013-07-03 23:21:00,64.6,59.3,30.11,North,0,0.0,-999.0,83,0.00,,,0.02,open2300 v1.10,2013-07-04 03:21:00,
2013-07-03 23:31:00,64.6,59.6,30.12,North,0,0.0,-999.0,84,0.00,,,0.02,open2300 v1.10,2013-07-04 03:31:00,
2013-07-03 23:41:00,64.4,59.5,30.11,North,0,0.0,-999.0,84,0.00,,,0.02,open2300 v1.10,2013-07-04 03:41:00,
2013-07-03 23:51:00,64.0,59.1,30.11,North,0,0.0,-999.0,84,0.00,,,0.02,open2300 v1.10,2013-07-04 03:51:00,